WetterOnline ( https://www.wetteronline.de )

Wetter aktuell Schweinfurt

Aktuelles Wetter: Bad Kissingen (266m)

6-stündlich | Neueste Meldungen
Ortszeit Temperatur Wetter
Mo, 16.09. 2:00 11.0° C wolkenlos
So, 15.09. 20:00 21.3° C fast wolkenlos
So, 15.09. 14:00 24.4° C -
So, 15.09. 8:00 8.5° C wolkig
So, 15.09. 2:00 11.4° C wolkenlos
Sa, 14.09. 20:00 18.7° C wolkig
Sa, 14.09. 14:00 20.6° C leicht bewölkt
Sa, 14.09. 8:00 11.7° C fast wolkenlos
Ortszeit Temperatur Wetter
Mo, 16.09. 6:30 8.7° C bedeckt
Mo, 16.09. 6:20 8.7° C bedeckt
Mo, 16.09. 6:10 8.6° C bedeckt
Mo, 16.09. 6:00 8.7° C bedeckt
Mo, 16.09. 5:50 8.7° C bedeckt
Mo, 16.09. 5:40 8.7° C bedeckt
Mo, 16.09. 5:30 8.7° C bedeckt
Mo, 16.09. 5:00 9.1° C bewölkt
Mo, 16.09. 4:30 9.3° C fast wolkenlos
Mo, 16.09. 4:00 9.7° C fast wolkenlos
Mo, 16.09. 3:30 10.2° C wolkenlos
Ortszeit Relative Feuchte Sichtweite
Mo, 16.09. 2:00 88% 55 km
So, 15.09. 20:00 45% >70 km
So, 15.09. 14:00 42% 45 km
So, 15.09. 8:00 95% 28 km
So, 15.09. 2:00 86% 55 km
Sa, 14.09. 20:00 60% 60 km
Sa, 14.09. 14:00 51% 50 km
Sa, 14.09. 8:00 79% 50 km
Ortszeit Relative Feuchte Sichtweite
Mo, 16.09. 6:30 90% 50 km
Mo, 16.09. 6:20 90% -
Mo, 16.09. 6:10 93% -
Mo, 16.09. 6:00 95% 45 km
Mo, 16.09. 5:50 95% -
Mo, 16.09. 5:40 94% -
Mo, 16.09. 5:30 93% 40 km
Mo, 16.09. 5:00 93% 40 km
Mo, 16.09. 4:30 94% 40 km
Mo, 16.09. 4:00 92% 50 km
Mo, 16.09. 3:30 91% 50 km
Ortszeit Niederschlagsmenge Niederschlagsart
Mo, 16.09. 2:00 0.0 l/m2 in 6 Std. -
So, 15.09. 20:00 0.0 l/m2 in 12 Std. -
So, 15.09. 14:00 0.0 l/m2 in 6 Std. -
So, 15.09. 8:00 0.0 l/m2 in 12 Std. -
So, 15.09. 2:00 0.0 l/m2 in 6 Std. -
Sa, 14.09. 20:00 0.0 l/m2 in 12 Std. -
Sa, 14.09. 14:00 0.0 l/m2 in 6 Std. -
Sa, 14.09. 8:00 0.0 l/m2 in 12 Std. -
Ortszeit Niederschlagsmenge Niederschlagsart
Mo, 16.09. 6:30 0.0 l/m2 in 1 Std. -
Mo, 16.09. 6:20 keine Meldung -
Mo, 16.09. 6:10 keine Meldung -
Mo, 16.09. 6:00 0.0 l/m2 in 1 Std. -
Mo, 16.09. 5:50 keine Meldung -
Mo, 16.09. 5:40 keine Meldung -
Mo, 16.09. 5:30 0.0 l/m2 in 1 Std. -
Mo, 16.09. 5:00 0.0 l/m2 in 1 Std. -
Mo, 16.09. 4:30 0.0 l/m2 in 1 Std. -
Mo, 16.09. 4:00 0.0 l/m2 in 1 Std. -
Mo, 16.09. 3:30 0.0 l/m2 in 1 Std. -
Ortszeit Stärke Spitze Richtung
km/h Bft. km/h Grad Sektor
Mo, 16.09. 2:00 6 1 13 180° S
So, 15.09. 20:00 4 1 29 220° SW
So, 15.09. 14:00 13 3 26 220° SW
So, 15.09. 8:00 7 2 11 360° N
So, 15.09. 2:00 7 2 14 350° N
Sa, 14.09. 20:00 7 2 18 50° NO
Sa, 14.09. 14:00 4 1 22 120° SO
Sa, 14.09. 8:00 6 1 19 360° N
Ortszeit Stärke Spitze Richtung
km/h Bft. km/h Grad Sektor
Mo, 16.09. 6:30 6 1 9 10° N
Mo, 16.09. 6:20 6 1 - 10° N
Mo, 16.09. 6:10 6 1 - 360° N
Mo, 16.09. 6:00 0 0 7 - -
Mo, 16.09. 5:50 2 1 - 350° N
Mo, 16.09. 5:40 2 1 - 330° NW
Mo, 16.09. 5:30 6 1 6 360° N
Mo, 16.09. 5:00 4 1 4 220° SW
Mo, 16.09. 4:30 4 1 4 180° S
Mo, 16.09. 4:00 4 1 7 330° NW
Mo, 16.09. 3:30 2 1 6 210° SW
Ortszeit Untergrenze Bedeckung Gattung
total tief tief mittel hoch
Mo, 16.09. 2:00 - 0/8 0/8 - - -
So, 15.09. 20:00 10500 m 1/8 0/8 - - -
So, 15.09. 14:00 - - - - - -
So, 15.09. 8:00 10500 m 8/8 0/8 - - -
So, 15.09. 2:00 - 0/8 0/8 - - -
Sa, 14.09. 20:00 9000 m 8/8 0/8 - - -
Sa, 14.09. 14:00 1200 m 2/8 2/8 - - -
Sa, 14.09. 8:00 10500 m 2/8 0/8 - - -
Ortszeit Bedeckungsgrad in Achtel und Wolkenuntergrenze
Mo, 16.09. 6:30 7(4800m) 8(5700m) 8(8700m)
Mo, 16.09. 6:20 7(4800m) 8(5700m) 8(8700m)
Mo, 16.09. 6:10 7(4800m) 8(5700m) 8(7200m)
Mo, 16.09. 6:00 5(5100m) 7(5700m) 8(6300m)
Mo, 16.09. 5:50 5(5100m) 7(5700m) 8(6300m)
Mo, 16.09. 5:40 3(4800m) 8(6000m)
Mo, 16.09. 5:30 8(6300m) 8(7500m) 8(8100m)
Mo, 16.09. 5:00 5(6600m) 8(7500m) 8(8400m)
Mo, 16.09. 4:30 2(7500m) 5(7800m) 5(8400m)
Mo, 16.09. 4:00 2(9000m)
Mo, 16.09. 3:30 keine Wolken
Ortszeit Luftdruck NN (hPa) Tendenz (hPa in 3 Std.)
Mo, 16.09. 2:00 1022 - 0,2
So, 15.09. 20:00 1020 - 0,3
So, 15.09. 14:00 1022 - 1,8
So, 15.09. 8:00 1027 - 0,5
So, 15.09. 2:00 1028 - 0,9
Sa, 14.09. 20:00 1028 - 0,7
Sa, 14.09. 14:00 1031 - 1,4
Sa, 14.09. 8:00 1034 + 0,4
Ortszeit Luftdruck NN (hPa) Tendenz (hPa in 3 Std.)
Mo, 16.09. 6:30 1022 - 0,2
Mo, 16.09. 6:20 1022 keine Meldung
Mo, 16.09. 6:10 1022 keine Meldung
Mo, 16.09. 6:00 1021 - 0,6
Mo, 16.09. 5:50 1021 keine Meldung
Mo, 16.09. 5:40 1022 keine Meldung
Mo, 16.09. 5:30 1022 - 0,3
Mo, 16.09. 5:00 1022 - 0,4
Mo, 16.09. 4:30 1022 - 0,4
Mo, 16.09. 4:00 1022 - 0,4
Mo, 16.09. 3:30 1022 - 0,4
Ortszeit Schneehöhe (cm)
Mo, 16.09. 2:00 -
So, 15.09. 20:00 -
So, 15.09. 14:00 -
So, 15.09. 8:00 -
So, 15.09. 2:00 -
Sa, 14.09. 20:00 -
Sa, 14.09. 14:00 -
Sa, 14.09. 8:00 -
Ortszeit Schneehöhe (cm)
Mo, 16.09. 6:30 -
Mo, 16.09. 6:20 -
Mo, 16.09. 6:10 -
Mo, 16.09. 6:00 -
Mo, 16.09. 5:50 -
Mo, 16.09. 5:40 -
Mo, 16.09. 5:30 -
Mo, 16.09. 5:00 -
Mo, 16.09. 4:30 -
Mo, 16.09. 4:00 -
Mo, 16.09. 3:30 -
Link zu dieser Seite / Seite empfehlen

Das Wetter in ...